Regional Weather Roundup
Issued by NWS

Home | Current Version | Previous Version | Graphics & Text | Print | Product List | Glossary On
Versions: 1 2 3 4 5 6 7 8 9 10 11 12 13 14 15 16 17 18 19 20 21 22 23 24 25 26 27 28 29 30 31 32 33 34 35 36 37 38 39 40 41 42 43 44 45 46 47 48 49 50
862
ASUS43 KDMX 111208
RWRIA

WEATHER ROUNDUP FOR IOWA
NATIONAL WEATHER SERVICE DES MOINES IA
600 AM CST THU FEB 11 2016

NOTE: "FAIR" INDICATES FEW OR NO CLOUDS BELOW 12,000 FEET WITH NO
SIGNIFICANT WEATHER AND/OR OBSTRUCTIONS TO VISIBILITY.

* - THESE STATIONS ARE NOT NWS STATIONS...THUS NOT UNDER NWS
QUALITY CONTROL.  THEY ALSO DO NOT REPORT WEATHER SUCH
AS PRECIPITATION OR FOG.

IAZ001>003-012>014-020>022-031>034-043>046-111300-
   NORTHWEST IOWA

CITY           SKY/WX    TMP DP  RH WIND       PRES   REMARKS
CARROLL *      CLOUDY    10   5  79 E6        30.29S WCI   1
CHEROKEE *     CLOUDY    13   6  73 E6        30.28F WCI   4
DENISON *      CLOUDY    12   5  73 E8        30.26F WCI   1
LE MARS *      CLOUDY    14   7  73 SE5       30.29S WCI   6
ORANGE CITY *  CLOUDY    12   7  79 CALM      30.26S
SHELDON *      CLOUDY    12   5  73 E7        30.25S WCI   2
SIOUX CITY     CLOUDY    17   9  70 E3        30.30R
6HR MIN TEMP:  17; 6HR MAX TEMP:  19;

SPENCER        CLOUDY    11   3  70 NE9       30.27F WCI  -2
6HR MIN TEMP:  11; 6HR MAX TEMP:  12;

STORM LAKE *   CLOUDY    12   7  79 E5        30.27S WCI   4
$$

IAZ055>058-069>071-079>083-090>094-111300-
   SOUTHWEST IOWA

CITY           SKY/WX    TMP DP  RH WIND       PRES   REMARKS
ATLANTIC *     CLOUDY    12   3  67 NE6       30.30R WCI   3
AUDUBON *      CLOUDY    10   3  72 NE9       30.28R WCI  -2
CLARINDA *     CLEAR     16  12  86 NE10      30.31R WCI   3
COUNCIL BLFS * CLOUDY    12   3  67 NE9       30.28S WCI   0
CRESTON *      CLEAR     10   5  79 N8        30.29R WCI  -1
HARLAN  *      CLOUDY    12   7  79 NE6       30.32S WCI   3
LAMONI         CLOUDY    12   6  77 NE7       30.26R WCI   1
6HR MIN TEMP:  12; 6HR MAX TEMP:  20;

RED OAK *      CLOUDY    14   9  79 NE10      30.30R WCI   1
SHENANDOAH *   CLOUDY    18  16  93 NE12      30.30R WCI   5
$$

IAZ047>049-059>061-072>074-084-111300-
   CENTRAL IOWA

CITY           SKY/WX    TMP DP  RH WIND       PRES   REMARKS
AMES           PTCLDY     0  -6  76 NW5       30.32R WCI -10
6HR MIN TEMP:  -3; 6HR MAX TEMP:  13;

ANKENY *       CLEAR      3  -4  72 N3        30.33R
BOONE *        CLEAR      3  -4  72 N6        30.30R WCI  -8
CHARITON *     PTCLDY     7   0  72 N8        30.29R WCI  -6
DES MOINES     CLOUDY     8  -2  63 NE7       30.31R WCI  -3
6HR MIN TEMP:   8; 6HR MAX TEMP:  16;

GRINNELL*      CLOUDY     3  -2  78 N6        30.30R WCI  -8
KNOXVILLE *    CLEAR      7  -2  66 N5        30.30R WCI  -2
MARSHALLTOWN   PTCLDY     1  -4  79 N6        30.30R WCI -10
6HR MIN TEMP:   1; 6HR MAX TEMP:   7;

NEWTON *       CLEAR      3  -2  78 N7        30.31R WCI  -9
PELLA *        PTCLDY     4  -2  77 CALM      30.32R
$$

IAZ004>006-015-016-023>025-035-036-111300-
   NORTH CENTRAL IOWA

CITY           SKY/WX    TMP DP  RH WIND       PRES   REMARKS
ALGONA *       CLEAR      3   0  85 N5        30.29R WCI  -6
CLARION *      CLEAR     -2  -9  71 N7        30.30R WCI -16
ESTHERVILLE    CLOUDY    -2  -6  83 N5        30.28S WCI -12
6HR MIN TEMP:  -4; 6HR MAX TEMP:  10;

FORT DODGE *   CLOUDY     1  -6  71 CALM      30.30S
MASON CITY     PTCLDY    -3  -9  75 W5        30.31R WCI -13
6HR MIN TEMP:  -6; 6HR MAX TEMP:   4;

FOREST CITY *  CLEAR     -4  -8  84 CALM      30.30R
WEBSTER CITY * CLEAR     -2  -8  78 N3        30.30R
IOWA FALLS *     N/A      0  -6  78 CALM      30.31R
$$

IAZ007>011-017>019-026>030-037>042-050>054-066-111300-
   NORTHEAST IOWA

CITY           SKY/WX    TMP DP  RH WIND       PRES   REMARKS
CEDAR RAPIDS   CLEAR      4   0  83 N6        30.29R WCI  -7
6HR MIN TEMP:   4; 6HR MAX TEMP:  10;

CHARLES CITY * CLEAR     -2  -8  78 N3        30.30R
CLINTON *      CLEAR      5   0  79 N6        30.30R WCI  -6
DECORAH *      CLEAR      1  -6  71 CALM      30.28R
DUBUQUE        CLEAR      5  -2  72 N6        30.27R WCI  -6
6HR MIN TEMP:   4; 6HR MAX TEMP:  11;

MONTICELLO *   CLEAR      7   0  72 N6        30.30R WCI  -3
OELWEIN *      CLEAR      0  -6  78 N5        30.29S WCI -10
WATERLOO       PTCLDY    -2  -6  83 CALM      30.31R
6HR MIN TEMP:  -2; 6HR MAX TEMP:   5;

$$

IAZ064-065-067-068-078-111300-
   EAST CENTRAL IOWA

CITY           SKY/WX    TMP DP  RH WIND       PRES   REMARKS
DAVENPORT      CLOUDY     6   0  76 N6        30.30R WCI  -4
6HR MIN TEMP:   5; 6HR MAX TEMP:  10;

IOWA CITY      CLOUDY     9   1  70 N7        30.34R WCI  -2
6HR MIN TEMP:   9; 6HR MAX TEMP:  13;

MT. PLEASANT * CLOUDY    10   4  77 N7        30.31R WCI   0
MUSCATINE *    CLEAR      9   3  78 CALM      30.33R
QUAD CITIES    CLOUDY    11   1  64 N6        30.30R WCI   1
6HR MIN TEMP:  10; 6HR MAX TEMP:  13;

$$

IAZ062-063-075>077-085>089-095>099-111300-
   SOUTHEAST IOWA

CITY           SKY/WX    TMP DP  RH WIND       PRES   REMARKS
BURLINGTON     CLOUDY     8   3  80 N7        30.29R WCI  -3
6HR MIN TEMP:   8; 6HR MAX TEMP:  19;

FAIRFIELD *    CLEAR      7   0  72 N5        30.30R WCI  -2
FORT MADISON * CLEAR      7   3  85 N3        30.30R
KEOKUK *       CLEAR     12   5  73 N5        30.29R WCI   4
OSKALOOSA *      N/A      6   1  80 NE3       30.30S
CENTERVILLE *  CLEAR      9   3  78 N6        30.29R WCI  -1
OTTUMWA        PTCLDY     7   2  80 N6        30.30R WCI  -3
6HR MIN TEMP:   5; 6HR MAX TEMP:  17;

WASHINGTON *   CLEAR      7   1  78 N6        30.32R WCI  -3
$$

ABBREVIATIONS USED IN REMARKS
   TC - TEMPERATURES IN CELSIUS
  WCI - WIND CHILL INDEX
   HX - HEAT INDEX
  VSB - VISIBILITY
$$





USA.gov is the U.S. government's official web portal to all federal, state and local government web resources and services.